Simultaneous Nadir Overpasses (SNOs) Predictions

Prediction of SNOs between GOES-17 and AQUA Satellite Orbit:

Table of predicted SNOs for the next 14.0 days since TLE Epoch: 8/14/2021
Index Date Time (GOES-17) GOES-17 Lat,Lon AQUA Lat,Lon Distance(km) Time Diff (sec)
1 08/14/2021 22:45:54 -0.05,-137.20 -0.22,-137.91 81.92 80
2 08/16/2021 22:36:23 -0.04,-137.19 0.45,-134.96 253.50 80
3 08/17/2021 10:57:38 0.04,-137.19 0.65,-140.12 332.50 80
4 08/19/2021 10:42:46 0.03,-137.17 0.04,-137.15 2.42 80
5 08/21/2021 10:33:15 0.01,-137.15 -0.63,-134.21 335.61 80
6 08/21/2021 22:51:59 -0.00,-137.14 -0.50,-139.39 256.10 80
7 08/23/2021 22:42:27 -0.00,-137.12 0.12,-136.43 78.12 80
8 08/25/2021 22:30:15 -0.01,-137.10 0.75,-133.47 412.21 80
9 08/26/2021 10:48:50 0.01,-137.10 0.36,-138.62 174.07 80
